date,time,SUV Intensity [MED/Hr],UV Index,Daily total [MED],Since Last [MED]
06/04/2023,00:04:55,0.000,0.0,0.0,0.0
06/04/2023,00:05:55,0.000,0.0,0.0,0.0
06/04/2023,00:06:55,0.000,0.0,0.0,0.0
06/04/2023,00:07:55,0.000,0.0,0.0,0.0
06/04/2023,00:08:55,0.000,0.0,0.0,0.0
06/04/2023,00:09:55,-0.001,0.0,0.0,0.0
06/04/2023,00:10:55,0.001,0.0,0.0,0.0
06/04/2023,00:11:56,0.000,0.0,0.0,0.0
06/04/2023,00:12:55,0.000,0.0,0.0,0.0
06/04/2023,00:13:55,0.000,0.0,0.0,0.0
06/04/2023,00:14:55,-0.000,0.0,0.0,0.0
06/04/2023,00:15:55,-0.001,0.0,0.0,0.0
06/04/2023,00:16:55,0.000,0.0,0.0,0.0
06/04/2023,00:17:55,0.000,0.0,0.0,0.0
06/04/2023,00:18:55,0.000,0.0,0.0,0.0
06/04/2023,00:19:55,0.000,0.0,0.0,0.0
06/04/2023,00:20:55,0.000,0.0,0.0,0.0
06/04/2023,00:21:55,-0.000,0.0,0.0,0.0
06/04/2023,00:22:55,-0.001,0.0,0.0,0.0
06/04/2023,00:23:55,-0.001,0.0,0.0,0.0
06/04/2023,00:24:55,-0.001,0.0,0.0,0.0
06/04/2023,00:25:55,0.001,0.0,0.0,0.0
06/04/2023,00:26:55,-0.000,0.0,0.0,0.0
06/04/2023,00:27:55,0.000,0.0,0.0,0.0
06/04/2023,00:28:55,-0.001,0.0,0.0,0.0
06/04/2023,00:29:55,-0.000,0.0,0.0,0.0
06/04/2023,00:30:56,0.001,0.0,0.0,0.0
06/04/2023,00:31:55,0.001,0.0,0.0,0.0
06/04/2023,00:32:55,0.000,0.0,0.0,0.0
06/04/2023,00:33:55,-0.001,0.0,0.0,0.0
06/04/2023,00:34:56,0.001,0.0,0.0,0.0
06/04/2023,00:35:55,0.000,0.0,0.0,0.0
06/04/2023,00:36:55,0.000,0.0,0.0,0.0
06/04/2023,00:37:55,0.000,0.0,0.0,0.0
06/04/2023,00:38:55,-0.001,0.0,0.0,0.0
06/04/2023,00:39:55,0.001,0.0,0.0,0.0
06/04/2023,00:40:55,0.000,0.0,0.0,0.0
06/04/2023,00:41:55,-0.001,0.0,0.0,0.0
06/04/2023,00:42:56,0.000,0.0,0.0,0.0
06/04/2023,00:43:55,-0.000,0.0,0.0,0.0
06/04/2023,00:44:55,0.000,0.0,0.0,0.0
06/04/2023,00:45:55,-0.000,0.0,0.0,0.0
06/04/2023,00:46:55,-0.000,0.0,0.0,0.0
06/04/2023,00:47:55,0.000,0.0,0.0,0.0
06/04/2023,00:48:55,-0.000,0.0,0.0,0.0
06/04/2023,00:49:55,0.001,0.0,0.0,0.0
06/04/2023,00:50:55,-0.000,0.0,0.0,0.0
06/04/2023,00:51:56,-0.001,0.0,0.0,0.0
06/04/2023,00:52:56,-0.002,0.0,0.0,0.0
06/04/2023,00:53:55,-0.000,0.0,0.0,0.0
06/04/2023,00:54:56,0.000,0.0,0.0,0.0
06/04/2023,00:55:55,-0.000,0.0,0.0,0.0
06/04/2023,00:56:55,-0.000,0.0,0.0,0.0
06/04/2023,00:57:55,-0.001,0.0,0.0,0.0
06/04/2023,00:58:55,-0.000,0.0,0.0,0.0
06/04/2023,00:59:55,0.000,0.0,0.0,0.0
06/04/2023,01:00:55,-0.000,0.0,0.0,0.0
06/04/2023,01:01:56,-0.000,0.0,0.0,0.0
06/04/2023,01:02:55,0.000,0.0,0.0,0.0
06/04/2023,01:03:55,-0.001,0.0,0.0,0.0
06/04/2023,01:04:55,-0.000,0.0,0.0,0.0
06/04/2023,01:05:55,-0.001,0.0,0.0,0.0
06/04/2023,01:06:56,-0.002,0.0,0.0,0.0
06/04/2023,01:07:55,-0.000,0.0,0.0,0.0
06/04/2023,01:08:55,0.000,0.0,0.0,0.0
06/04/2023,01:09:57,0.001,0.0,0.0,0.0
06/04/2023,01:10:55,-0.000,0.0,0.0,0.0
06/04/2023,01:11:55,-0.001,0.0,0.0,0.0
06/04/2023,01:12:56,0.000,0.0,0.0,0.0
06/04/2023,01:13:55,-0.000,0.0,0.0,0.0
06/04/2023,01:14:56,-0.000,0.0,0.0,0.0
06/04/2023,01:15:56,-0.001,0.0,0.0,0.0
06/04/2023,01:16:55,-0.000,0.0,0.0,0.0
06/04/2023,01:17:56,-0.000,0.0,0.0,0.0
06/04/2023,01:18:55,-0.000,0.0,0.0,0.0
06/04/2023,01:19:55,0.000,0.0,0.0,0.0
06/04/2023,01:20:55,0.001,0.0,0.0,0.0
06/04/2023,01:21:55,-0.000,0.0,0.0,0.0
06/04/2023,01:22:55,-0.000,0.0,0.0,0.0
06/04/2023,01:23:55,0.001,0.0,0.0,0.0
06/04/2023,01:24:55,-0.001,0.0,0.0,0.0
06/04/2023,01:25:55,-0.001,0.0,0.0,0.0
06/04/2023,01:26:56,-0.000,0.0,0.0,0.0
06/04/2023,01:27:56,-0.000,0.0,0.0,0.0
06/04/2023,01:28:56,-0.000,0.0,0.0,0.0
06/04/2023,01:29:55,-0.000,0.0,0.0,0.0
06/04/2023,01:30:55,-0.000,0.0,0.0,0.0
06/04/2023,01:31:55,-0.000,0.0,0.0,0.0
06/04/2023,01:32:55,0.000,0.0,0.0,0.0
06/04/2023,01:33:55,-0.001,0.0,0.0,0.0
06/04/2023,01:34:55,-0.000,0.0,0.0,0.0
06/04/2023,01:35:55,-0.000,0.0,0.0,0.0
06/04/2023,01:36:55,-0.000,0.0,0.0,0.0
06/04/2023,01:37:56,0.001,0.0,0.0,0.0
06/04/2023,01:38:55,-0.001,0.0,0.0,0.0
06/04/2023,01:39:56,0.000,0.0,0.0,0.0
06/04/2023,01:40:55,-0.000,0.0,0.0,0.0
06/04/2023,01:41:55,-0.000,0.0,0.0,0.0
06/04/2023,01:42:55,0.000,0.0,0.0,0.0
06/04/2023,01:43:55,-0.001,0.0,0.0,0.0
06/04/2023,01:44:55,-0.000,0.0,0.0,0.0
06/04/2023,01:45:55,-0.000,0.0,0.0,0.0
06/04/2023,01:46:55,0.000,0.0,0.0,0.0
06/04/2023,01:47:55,0.001,0.0,0.0,0.0
06/04/2023,01:48:55,0.001,0.0,0.0,0.0
06/04/2023,01:49:55,0.001,0.0,0.0,0.0
06/04/2023,01:50:56,-0.000,0.0,0.0,0.0
06/04/2023,01:51:55,0.000,0.0,0.0,0.0
06/04/2023,01:52:55,-0.000,0.0,0.0,0.0
06/04/2023,01:53:55,-0.000,0.0,0.0,0.0
06/04/2023,01:54:55,0.000,0.0,0.0,0.0
06/04/2023,01:55:55,-0.000,0.0,0.0,0.0
06/04/2023,01:56:56,-0.000,0.0,0.0,0.0
06/04/2023,01:57:56,-0.001,0.0,0.0,0.0
06/04/2023,01:58:55,-0.000,0.0,0.0,0.0
06/04/2023,01:59:55,-0.000,0.0,0.0,0.0
06/04/2023,02:00:55,-0.001,0.0,0.0,0.0
06/04/2023,02:01:55,-0.001,0.0,0.0,0.0
06/04/2023,02:02:55,-0.000,0.0,0.0,0.0
06/04/2023,02:03:55,-0.001,0.0,0.0,0.0
06/04/2023,02:04:56,-0.000,0.0,0.0,0.0
06/04/2023,02:05:55,-0.001,0.0,0.0,0.0
06/04/2023,02:06:55,-0.000,0.0,0.0,0.0
06/04/2023,02:07:55,0.000,0.0,0.0,0.0
06/04/2023,02:08:55,-0.001,0.0,0.0,0.0
06/04/2023,02:09:55,-0.001,0.0,0.0,0.0
06/04/2023,02:10:55,-0.001,0.0,0.0,0.0
06/04/2023,02:11:56,-0.000,0.0,0.0,0.0
06/04/2023,02:12:56,0.001,0.0,0.0,0.0
06/04/2023,02:13:56,-0.000,0.0,0.0,0.0
06/04/2023,02:14:56,-0.000,0.0,0.0,0.0
06/04/2023,02:15:55,-0.000,0.0,0.0,0.0
06/04/2023,02:16:55,-0.001,0.0,0.0,0.0
06/04/2023,02:17:55,-0.000,0.0,0.0,0.0
06/04/2023,02:18:55,0.001,0.0,0.0,0.0
06/04/2023,02:19:56,-0.000,0.0,0.0,0.0
06/04/2023,02:20:55,-0.000,0.0,0.0,0.0
06/04/2023,02:21:55,-0.001,0.0,0.0,0.0
06/04/2023,02:22:55,-0.000,0.0,0.0,0.0
06/04/2023,02:23:55,-0.000,0.0,0.0,0.0
06/04/2023,02:24:55,-0.000,0.0,0.0,0.0
06/04/2023,02:25:55,0.001,0.0,0.0,0.0
06/04/2023,02:26:55,-0.001,0.0,0.0,0.0
06/04/2023,02:27:55,-0.000,0.0,0.0,0.0
06/04/2023,02:28:55,0.001,0.0,0.0,0.0
06/04/2023,02:29:56,0.000,0.0,0.0,0.0
06/04/2023,02:30:55,-0.001,0.0,0.0,0.0
06/04/2023,02:31:55,-0.000,0.0,0.0,0.0
06/04/2023,02:32:56,-0.000,0.0,0.0,0.0
06/04/2023,02:33:56,-0.001,0.0,0.0,0.0
06/04/2023,02:34:55,-0.000,0.0,0.0,0.0
06/04/2023,02:35:55,-0.000,0.0,0.0,0.0
06/04/2023,02:36:56,0.001,0.0,0.0,0.0
06/04/2023,02:37:56,-0.000,0.0,0.0,0.0
06/04/2023,02:38:56,-0.000,0.0,0.0,0.0
06/04/2023,02:39:55,0.000,0.0,0.0,0.0
06/04/2023,02:40:56,-0.001,0.0,0.0,0.0
06/04/2023,02:41:55,-0.000,0.0,0.0,0.0
06/04/2023,02:42:56,-0.000,0.0,0.0,0.0
06/04/2023,02:43:56,0.000,0.0,0.0,0.0
06/04/2023,02:44:56,-0.000,0.0,0.0,0.0
06/04/2023,02:45:56,-0.001,0.0,0.0,0.0
06/04/2023,02:46:56,-0.000,0.0,0.0,0.0
06/04/2023,02:47:56,0.000,0.0,0.0,0.0
06/04/2023,02:48:55,0.001,0.0,0.0,0.0
06/04/2023,02:49:55,-0.000,0.0,0.0,0.0
06/04/2023,02:50:56,-0.000,0.0,0.0,0.0
06/04/2023,02:51:56,-0.001,0.0,0.0,0.0
06/04/2023,02:52:55,-0.000,0.0,0.0,0.0
06/04/2023,02:53:55,-0.001,0.0,0.0,0.0
06/04/2023,02:54:55,-0.000,0.0,0.0,0.0
06/04/2023,02:55:55,0.000,0.0,0.0,0.0
06/04/2023,02:56:56,-0.000,0.0,0.0,0.0
06/04/2023,02:57:56,0.000,0.0,0.0,0.0
06/04/2023,02:58:56,-0.001,0.0,0.0,0.0
06/04/2023,02:59:56,-0.001,0.0,0.0,0.0
06/04/2023,03:00:56,-0.000,0.0,0.0,0.0
06/04/2023,03:01:55,-0.000,0.0,0.0,0.0
06/04/2023,03:02:55,-0.000,0.0,0.0,0.0
06/04/2023,03:03:56,-0.000,0.0,0.0,0.0
06/04/2023,03:04:56,0.000,0.0,0.0,0.0
06/04/2023,03:05:56,0.001,0.0,0.0,0.0
06/04/2023,03:06:56,0.000,0.0,0.0,0.0
06/04/2023,03:07:55,-0.002,0.0,0.0,0.0
06/04/2023,03:08:56,0.001,0.0,0.0,0.0
06/04/2023,03:09:56,0.001,0.0,0.0,0.0
06/04/2023,03:10:55,-0.000,0.0,0.0,0.0
06/04/2023,03:11:55,-0.001,0.0,0.0,0.0
06/04/2023,03:12:55,-0.001,0.0,0.0,0.0
06/04/2023,03:13:55,0.000,0.0,0.0,0.0
06/04/2023,03:14:55,-0.000,0.0,0.0,0.0
06/04/2023,03:15:55,-0.001,0.0,0.0,0.0
06/04/2023,03:16:55,-0.000,0.0,0.0,0.0
06/04/2023,03:17:55,0.001,0.0,0.0,0.0
06/04/2023,03:18:55,-0.000,0.0,0.0,0.0
06/04/2023,03:19:56,-0.000,0.0,0.0,0.0
06/04/2023,03:20:56,0.001,0.0,0.0,0.0
06/04/2023,03:21:55,-0.000,0.0,0.0,0.0
06/04/2023,03:22:56,-0.000,0.0,0.0,0.0
06/04/2023,03:23:56,0.001,0.0,0.0,0.0
06/04/2023,03:24:55,-0.001,0.0,0.0,0.0
06/04/2023,03:25:56,0.000,0.0,0.0,0.0
06/04/2023,03:26:56,0.000,0.0,0.0,0.0
06/04/2023,03:27:55,0.001,0.0,0.0,0.0
06/04/2023,03:28:55,-0.002,0.0,0.0,0.0
06/04/2023,03:29:55,0.000,0.0,0.0,0.0
06/04/2023,03:30:56,-0.000,0.0,0.0,0.0
06/04/2023,03:31:55,-0.001,0.0,0.0,0.0
06/04/2023,03:32:55,-0.000,0.0,0.0,0.0
06/04/2023,03:33:56,0.000,0.0,0.0,0.0
06/04/2023,03:34:56,0.000,0.0,0.0,0.0
06/04/2023,03:35:55,-0.001,0.0,0.0,0.0
06/04/2023,03:36:55,-0.000,0.0,0.0,0.0
06/04/2023,03:37:55,-0.000,0.0,0.0,0.0
06/04/2023,03:38:55,-0.000,0.0,0.0,0.0
06/04/2023,03:39:56,-0.000,0.0,0.0,0.0
06/04/2023,03:40:55,-0.001,0.0,0.0,0.0
06/04/2023,03:41:55,-0.000,0.0,0.0,0.0
06/04/2023,03:42:56,-0.001,0.0,0.0,0.0
06/04/2023,03:43:55,-0.001,0.0,0.0,0.0
06/04/2023,03:44:55,-0.001,0.0,0.0,0.0
06/04/2023,03:45:56,-0.000,0.0,0.0,0.0
06/04/2023,03:46:56,-0.000,0.0,0.0,0.0
06/04/2023,03:47:55,-0.000,0.0,0.0,0.0
06/04/2023,03:48:56,0.001,0.0,0.0,0.0
06/04/2023,03:49:55,-0.001,0.0,0.0,0.0
06/04/2023,03:50:56,0.000,0.0,0.0,0.0
06/04/2023,03:51:56,-0.001,0.0,0.0,0.0
06/04/2023,03:52:55,-0.001,0.0,0.0,0.0
06/04/2023,03:53:55,-0.002,0.0,0.0,0.0
06/04/2023,03:54:55,-0.000,0.0,0.0,0.0
06/04/2023,03:55:56,-0.001,0.0,0.0,0.0
06/04/2023,03:56:55,-0.001,0.0,0.0,0.0
06/04/2023,03:57:55,-0.001,0.0,0.0,0.0
06/04/2023,03:58:55,-0.001,0.0,0.0,0.0
06/04/2023,03:59:55,-0.001,0.0,0.0,0.0
06/04/2023,04:00:56,-0.001,0.0,0.0,0.0
06/04/2023,04:01:56,0.000,0.0,0.0,0.0
06/04/2023,04:02:56,-0.000,0.0,0.0,0.0
06/04/2023,04:03:55,-0.000,0.0,0.0,0.0
06/04/2023,04:04:55,-0.001,0.0,0.0,0.0
06/04/2023,04:05:56,-0.000,0.0,0.0,0.0
06/04/2023,04:06:55,0.001,0.0,0.0,0.0
06/04/2023,04:07:56,-0.000,0.0,0.0,0.0
06/04/2023,04:08:55,-0.000,0.0,0.0,0.0
06/04/2023,04:09:55,0.000,0.0,0.0,0.0
06/04/2023,04:10:55,-0.000,0.0,0.0,0.0
06/04/2023,04:11:55,-0.001,0.0,0.0,0.0
06/04/2023,04:12:56,-0.000,0.0,0.0,0.0
06/04/2023,04:13:55,-0.002,0.0,0.0,0.0
06/04/2023,04:14:56,-0.000,0.0,0.0,0.0
06/04/2023,04:15:56,-0.000,0.0,0.0,0.0
06/04/2023,04:16:55,0.000,0.0,0.0,0.0
06/04/2023,04:17:56,-0.000,0.0,0.0,0.0
06/04/2023,04:18:56,-0.000,0.0,0.0,0.0
06/04/2023,04:19:56,-0.000,0.0,0.0,0.0
06/04/2023,04:20:56,-0.001,0.0,0.0,0.0
06/04/2023,04:21:55,-0.002,0.0,0.0,0.0
06/04/2023,04:22:57,-0.001,0.0,0.0,0.0
06/04/2023,04:23:56,-0.002,0.0,0.0,0.0
06/04/2023,04:24:56,-0.001,0.0,0.0,0.0
06/04/2023,04:25:56,0.000,0.0,0.0,0.0
06/04/2023,04:26:56,-0.000,0.0,0.0,0.0
06/04/2023,04:27:56,-0.001,0.0,0.0,0.0
06/04/2023,04:28:56,0.000,0.0,0.0,0.0
06/04/2023,04:29:56,-0.001,0.0,0.0,0.0
06/04/2023,04:30:56,-0.000,0.0,0.0,0.0
06/04/2023,04:31:55,-0.001,0.0,0.0,0.0
06/04/2023,04:32:55,-0.001,0.0,0.0,0.0
06/04/2023,04:33:55,-0.001,0.0,0.0,0.0
06/04/2023,04:34:55,-0.000,0.0,0.0,0.0
06/04/2023,04:35:56,-0.000,0.0,0.0,0.0
06/04/2023,04:36:56,-0.000,0.0,0.0,0.0
06/04/2023,04:37:56,-0.002,0.0,0.0,0.0
06/04/2023,04:38:55,-0.001,0.0,0.0,0.0
06/04/2023,04:39:56,-0.000,0.0,0.0,0.0
06/04/2023,04:40:56,-0.000,0.0,0.0,0.0
06/04/2023,04:41:55,0.000,0.0,0.0,0.0
06/04/2023,04:42:56,-0.000,0.0,0.0,0.0
06/04/2023,04:43:56,-0.000,0.0,0.0,0.0
06/04/2023,04:44:56,-0.001,0.0,0.0,0.0
06/04/2023,04:45:56,-0.000,0.0,0.0,0.0
06/04/2023,04:46:56,-0.001,0.0,0.0,0.0
06/04/2023,04:47:56,0.000,0.0,0.0,0.0
06/04/2023,04:48:56,-0.001,0.0,0.0,0.0
06/04/2023,04:49:55,-0.000,0.0,0.0,0.0
06/04/2023,04:50:56,0.001,0.0,0.0,0.0
06/04/2023,04:51:56,-0.001,0.0,0.0,0.0
06/04/2023,04:52:55,0.001,0.0,0.0,0.0
06/04/2023,04:53:55,0.001,0.0,0.0,0.0
06/04/2023,04:54:55,0.000,0.0,0.0,0.0
06/04/2023,04:55:56,-0.001,0.0,0.0,0.0
06/04/2023,04:56:56,0.001,0.0,0.0,0.0
06/04/2023,04:57:55,-0.001,0.0,0.0,0.0
06/04/2023,04:58:55,-0.000,0.0,0.0,0.0
06/04/2023,04:59:55,0.000,0.0,0.0,0.0
06/04/2023,05:00:56,-0.001,0.0,0.0,0.0
06/04/2023,05:01:56,-0.000,0.0,0.0,0.0
06/04/2023,05:02:55,-0.000,0.0,0.0,0.0
06/04/2023,05:03:55,-0.000,0.0,0.0,0.0
06/04/2023,05:04:56,-0.001,0.0,0.0,0.0
06/04/2023,05:05:55,-0.001,0.0,0.0,0.0
06/04/2023,05:06:56,-0.000,0.0,0.0,0.0
06/04/2023,05:07:56,-0.000,0.0,0.0,0.0
06/04/2023,05:08:56,-0.001,0.0,0.0,0.0
06/04/2023,05:09:56,-0.002,0.0,0.0,0.0
06/04/2023,05:10:56,-0.001,0.0,0.0,0.0
06/04/2023,05:11:56,0.000,0.0,0.0,0.0
06/04/2023,05:12:56,-0.000,0.0,0.0,0.0
06/04/2023,05:13:56,-0.001,0.0,0.0,0.0
06/04/2023,05:14:56,-0.001,0.0,0.0,0.0
06/04/2023,05:15:56,-0.001,0.0,0.0,0.0
06/04/2023,05:16:56,-0.001,0.0,0.0,0.0
06/04/2023,05:17:56,-0.000,0.0,0.0,0.0
06/04/2023,05:18:56,-0.001,0.0,0.0,0.0
06/04/2023,05:19:55,-0.001,0.0,0.0,0.0
06/04/2023,05:20:55,-0.000,0.0,0.0,0.0
06/04/2023,05:21:55,-0.001,0.0,0.0,0.0
06/04/2023,05:22:56,-0.001,0.0,0.0,0.0
06/04/2023,05:23:56,-0.001,0.0,0.0,0.0
06/04/2023,05:24:56,-0.000,0.0,0.0,0.0
06/04/2023,05:25:56,-0.000,0.0,0.0,0.0
06/04/2023,05:26:55,0.001,0.0,0.0,0.0
06/04/2023,05:27:56,-0.000,0.0,0.0,0.0
06/04/2023,05:28:56,-0.000,0.0,0.0,0.0
06/04/2023,05:29:55,-0.001,0.0,0.0,0.0
06/04/2023,05:30:56,-0.000,0.0,0.0,0.0
06/04/2023,05:31:56,-0.000,0.0,0.0,0.0
06/04/2023,05:32:56,-0.000,0.0,0.0,0.0
06/04/2023,05:33:56,0.001,0.0,0.0,0.0
06/04/2023,05:34:55,-0.000,0.0,0.0,0.0
06/04/2023,05:35:56,-0.000,0.0,0.0,0.0
06/04/2023,05:36:56,0.000,0.0,0.0,0.0
06/04/2023,05:37:55,-0.001,0.0,0.0,0.0
06/04/2023,05:38:55,0.001,0.0,0.0,0.0
06/04/2023,05:39:55,-0.000,0.0,0.0,0.0
06/04/2023,05:40:55,0.000,0.0,0.0,0.0
06/04/2023,05:41:55,0.000,0.0,0.0,0.0
06/04/2023,05:42:55,0.000,0.0,0.0,0.0
06/04/2023,05:43:56,0.000,0.0,0.0,0.0
06/04/2023,05:44:56,0.000,0.0,0.0,0.0
06/04/2023,05:45:56,0.000,0.0,0.0,0.0
06/04/2023,05:46:56,0.000,0.0,0.0,0.0
06/04/2023,05:47:56,0.001,0.0,0.0,0.0
06/04/2023,05:48:55,-0.000,0.0,0.0,0.0
06/04/2023,05:49:55,0.000,0.0,0.0,0.0
06/04/2023,05:50:56,0.001,0.0,0.0,0.0
06/04/2023,05:51:56,0.001,0.0,0.0,0.0
06/04/2023,05:52:56,0.001,0.0,0.0,0.0
06/04/2023,05:53:56,0.001,0.0,0.0,0.0
06/04/2023,05:54:56,-0.000,0.0,0.0,0.0
06/04/2023,05:55:56,0.001,0.0,0.0,0.0
06/04/2023,05:56:56,0.001,0.0,0.0,0.0
06/04/2023,05:57:55,0.001,0.0,0.0,0.0
06/04/2023,05:58:55,0.001,0.0,0.0,0.0
06/04/2023,05:59:56,0.001,0.0,0.0,0.0
06/04/2023,06:00:56,0.002,0.0,0.0,0.0
06/04/2023,06:01:55,0.002,0.0,0.0,0.0
06/04/2023,06:02:55,0.003,0.0,0.0,0.0
06/04/2023,06:03:56,0.003,0.0,0.0,0.0
06/04/2023,06:04:55,0.003,0.0,0.0,0.0
06/04/2023,06:05:57,0.003,0.0,0.0,0.0
06/04/2023,06:06:56,0.005,0.0,0.0,0.0
06/04/2023,06:07:56,0.005,0.0,0.0,0.0
06/04/2023,06:08:56,0.005,0.0,0.0,0.0
06/04/2023,06:09:55,0.006,0.0,0.0,0.0
06/04/2023,06:10:55,0.005,0.0,0.0,0.0
06/04/2023,06:11:56,0.005,0.0,0.0,0.0
06/04/2023,06:12:56,0.006,0.0,0.0,0.0
06/04/2023,06:13:56,0.006,0.0,0.0,0.0
06/04/2023,06:14:56,0.006,0.0,0.0,0.0
06/04/2023,06:15:56,0.006,0.0,0.0,0.0
06/04/2023,06:16:55,0.006,0.0,0.001,0.001
06/04/2023,06:17:56,0.006,0.0,0.001,0.0
06/04/2023,06:18:56,0.007,0.0,0.001,0.0
06/04/2023,06:19:56,0.007,0.0,0.001,0.0
06/04/2023,06:20:56,0.008,0.0,0.001,0.0
06/04/2023,06:21:55,0.007,0.0,0.001,0.0
06/04/2023,06:22:56,0.007,0.0,0.001,0.0
06/04/2023,06:23:56,0.008,0.0,0.001,0.0
06/04/2023,06:24:56,0.010,0.0,0.001,0.0
06/04/2023,06:25:56,0.014,0.0,0.002,0.001
06/04/2023,06:26:55,0.019,0.0,0.002,0.0
06/04/2023,06:27:56,0.020,0.0,0.002,0.0
06/04/2023,06:28:56,0.023,0.0,0.003,0.001
06/04/2023,06:29:55,0.025,0.0,0.003,0.0
06/04/2023,06:30:56,0.027,0.0,0.003,0.0
06/04/2023,06:31:55,0.028,0.0,0.004,0.001
06/04/2023,06:32:56,0.031,0.0,0.004,0.0
06/04/2023,06:33:56,0.032,0.0,0.005,0.001
06/04/2023,06:34:55,0.033,0.0,0.006,0.001
06/04/2023,06:35:56,0.034,0.0,0.006,0.0
06/04/2023,06:36:56,0.035,0.0,0.007,0.001
06/04/2023,06:37:55,0.035,0.0,0.007,0.0
06/04/2023,06:38:55,0.036,0.0,0.008,0.001
06/04/2023,06:39:55,0.038,0.0,0.008,0.0
06/04/2023,06:40:56,0.038,0.0,0.009,0.001
06/04/2023,06:41:55,0.038,0.0,0.01,0.001
06/04/2023,06:42:56,0.038,0.0,0.01,0.0
06/04/2023,06:43:56,0.038,0.0,0.011,0.001
06/04/2023,06:44:55,0.036,0.0,0.012,0.001
06/04/2023,06:45:55,0.036,0.0,0.012,0.0
06/04/2023,06:46:56,0.035,0.0,0.013,0.001
06/04/2023,06:47:56,0.035,0.0,0.013,0.0
06/04/2023,06:48:56,0.033,0.0,0.014,0.001
06/04/2023,06:49:56,0.033,0.0,0.014,0.0
06/04/2023,06:50:55,0.031,0.0,0.015,0.001
06/04/2023,06:51:56,0.031,0.0,0.015,0.0
06/04/2023,06:52:56,0.032,0.0,0.016,0.001
06/04/2023,06:53:56,0.034,0.0,0.017,0.001
06/04/2023,06:54:56,0.033,0.0,0.017,0.0
06/04/2023,06:55:56,0.034,0.0,0.018,0.001
06/04/2023,06:56:56,0.036,0.0,0.018,0.0
06/04/2023,06:57:56,0.038,0.0,0.019,0.001
06/04/2023,06:58:56,0.039,0.0,0.02,0.001
06/04/2023,06:59:56,0.040,0.0,0.02,0.0
06/04/2023,07:00:57,0.039,0.0,0.021,0.001
06/04/2023,07:01:56,0.037,0.0,0.021,0.0
06/04/2023,07:02:56,0.036,0.0,0.022,0.001
06/04/2023,07:03:56,0.036,0.0,0.023,0.001
06/04/2023,07:04:56,0.035,0.0,0.023,0.0
06/04/2023,07:05:56,0.035,0.0,0.024,0.001
06/04/2023,07:06:56,0.035,0.0,0.024,0.0
06/04/2023,07:07:56,0.036,0.0,0.025,0.001
06/04/2023,07:08:56,0.038,0.0,0.026,0.001
06/04/2023,07:09:56,0.039,0.0,0.026,0.0
06/04/2023,07:10:56,0.041,0.0,0.027,0.001
06/04/2023,07:11:56,0.043,0.0,0.028,0.001
06/04/2023,07:12:55,0.044,0.0,0.028,0.0
06/04/2023,07:13:56,0.045,0.0,0.029,0.001
06/04/2023,07:14:56,0.045,0.0,0.03,0.001
06/04/2023,07:15:56,0.045,0.0,0.031,0.001
06/04/2023,07:16:56,0.047,0.0,0.031,0.0
06/04/2023,07:17:56,0.048,0.0,0.032,0.001
06/04/2023,07:18:56,0.052,0.0,0.033,0.001
06/04/2023,07:19:56,0.057,0.0,0.034,0.001
06/04/2023,07:20:56,0.061,0.0,0.035,0.001
06/04/2023,07:21:56,0.063,0.0,0.036,0.001
06/04/2023,07:22:56,0.066,0.0,0.037,0.001
06/04/2023,07:23:56,0.070,0.0,0.038,0.001
06/04/2023,07:24:56,0.074,0.0,0.039,0.001
06/04/2023,07:25:56,0.077,0.0,0.041,0.002
06/04/2023,07:26:56,0.079,0.0,0.042,0.001
06/04/2023,07:27:56,0.077,0.0,0.043,0.001
06/04/2023,07:28:56,0.079,0.0,0.045,0.002
06/04/2023,07:29:56,0.073,0.0,0.046,0.001
06/04/2023,07:30:56,0.068,0.0,0.047,0.001
06/04/2023,07:31:56,0.062,0.0,0.048,0.001
06/04/2023,07:32:55,0.057,0.0,0.049,0.001
06/04/2023,07:33:56,0.057,0.0,0.05,0.001
06/04/2023,07:34:56,0.051,0.0,0.051,0.001
06/04/2023,07:35:56,0.044,0.0,0.052,0.001
06/04/2023,07:36:56,0.042,0.0,0.052,0.0
06/04/2023,07:37:55,0.044,0.0,0.053,0.001
06/04/2023,07:38:55,0.042,0.0,0.054,0.001
06/04/2023,07:39:56,0.044,0.0,0.055,0.001
06/04/2023,07:40:55,0.045,0.0,0.055,0.0
06/04/2023,07:41:56,0.044,0.0,0.056,0.001
06/04/2023,07:42:56,0.052,0.0,0.057,0.001
06/04/2023,07:43:56,0.063,0.0,0.058,0.001
06/04/2023,07:44:56,0.079,0.0,0.059,0.001
06/04/2023,07:45:56,0.097,0.0,0.06,0.001
06/04/2023,07:46:56,0.112,0.0,0.062,0.002
06/04/2023,07:47:56,0.121,0.0,0.064,0.002
06/04/2023,07:48:56,0.124,0.0,0.066,0.002
06/04/2023,07:49:55,0.134,0.0,0.068,0.002
06/04/2023,07:50:56,0.142,0.0,0.071,0.003
06/04/2023,07:51:56,0.150,0.0,0.073,0.002
06/04/2023,07:52:56,0.157,0.0,0.076,0.003
06/04/2023,07:53:56,0.167,0.0,0.078,0.002
06/04/2023,07:54:56,0.166,0.0,0.081,0.003
06/04/2023,07:55:55,0.171,0.0,0.084,0.003
06/04/2023,07:56:56,0.201,0.0,0.087,0.003
06/04/2023,07:57:55,0.192,0.0,0.09,0.003
06/04/2023,07:58:56,0.201,0.0,0.094,0.004
06/04/2023,07:59:56,0.206,0.0,0.097,0.003
06/04/2023,08:00:56,0.188,0.0,0.1,0.003
06/04/2023,08:01:56,0.183,0.0,0.104,0.004
06/04/2023,08:02:56,0.181,0.0,0.107,0.003
06/04/2023,08:03:56,0.178,0.0,0.11,0.003
06/04/2023,08:04:55,0.173,0.0,0.113,0.003
06/04/2023,08:05:56,0.174,0.0,0.115,0.002
06/04/2023,08:06:56,0.175,0.0,0.118,0.003
06/04/2023,08:07:56,0.154,0.0,0.121,0.003
06/04/2023,08:08:56,0.153,0.0,0.123,0.002
06/04/2023,08:09:55,0.155,0.0,0.126,0.003
06/04/2023,08:10:56,0.158,0.0,0.129,0.003
06/04/2023,08:11:56,0.162,0.0,0.131,0.002
06/04/2023,08:12:56,0.166,0.0,0.134,0.003
06/04/2023,08:13:56,0.171,0.0,0.137,0.003
06/04/2023,08:14:56,0.177,0.0,0.14,0.003
06/04/2023,08:15:56,0.181,0.0,0.143,0.003
06/04/2023,08:16:56,0.186,0.0,0.146,0.003
06/04/2023,08:17:56,0.193,0.0,0.149,0.003
06/04/2023,08:18:56,0.199,0.0,0.152,0.003
06/04/2023,08:19:56,0.208,0.0,0.156,0.004
06/04/2023,08:20:56,0.218,1.0,0.159,0.003
06/04/2023,08:21:56,0.228,1.0,0.163,0.004
06/04/2023,08:22:56,0.237,1.0,0.167,0.004
06/04/2023,08:23:56,0.245,1.0,0.171,0.004
06/04/2023,08:24:56,0.251,1.0,0.175,0.004
06/04/2023,08:25:55,0.258,1.0,0.179,0.004
06/04/2023,08:26:56,0.258,1.0,0.184,0.005
06/04/2023,08:27:56,0.266,1.0,0.188,0.004
06/04/2023,08:28:56,0.269,1.0,0.192,0.004
06/04/2023,08:29:56,0.274,1.0,0.197,0.005
06/04/2023,08:30:56,0.302,1.0,0.202,0.005
06/04/2023,08:32:00,0.289,1.0,0.207,0.005
06/04/2023,08:32:57,0.291,1.0,0.211,0.004
06/04/2023,08:33:56,0.282,1.0,0.216,0.005
06/04/2023,08:34:56,0.246,1.0,0.22,0.004
06/04/2023,08:35:56,0.230,1.0,0.224,0.004
06/04/2023,08:36:56,0.227,1.0,0.228,0.004
06/04/2023,08:37:56,0.228,1.0,0.232,0.004
06/04/2023,08:38:56,0.228,1.0,0.236,0.004
06/04/2023,08:39:56,0.228,1.0,0.24,0.004
06/04/2023,08:40:56,0.228,1.0,0.243,0.003
06/04/2023,08:41:55,0.225,1.0,0.247,0.004
06/04/2023,08:42:57,0.224,1.0,0.251,0.004
06/04/2023,08:43:55,0.224,1.0,0.255,0.004
06/04/2023,08:44:56,0.224,1.0,0.258,0.003
06/04/2023,08:45:56,0.228,1.0,0.262,0.004
06/04/2023,08:46:56,0.233,1.0,0.266,0.004
06/04/2023,08:47:56,0.240,1.0,0.27,0.004
06/04/2023,08:48:56,0.248,1.0,0.274,0.004
06/04/2023,08:49:56,0.255,1.0,0.278,0.004
06/04/2023,08:50:56,0.264,1.0,0.283,0.005
06/04/2023,08:51:56,0.273,1.0,0.287,0.004
06/04/2023,08:52:57,0.281,1.0,0.292,0.005
06/04/2023,08:53:56,0.296,1.0,0.296,0.004
06/04/2023,08:54:56,0.304,1.0,0.301,0.005
06/04/2023,08:55:56,0.311,1.0,0.307,0.006
06/04/2023,08:56:56,0.325,1.0,0.312,0.005
06/04/2023,08:57:56,0.333,1.0,0.317,0.005
06/04/2023,08:58:56,0.327,1.0,0.323,0.006
06/04/2023,08:59:56,0.333,1.0,0.328,0.005
06/04/2023,09:00:56,0.324,1.0,0.334,0.006
06/04/2023,09:01:56,0.335,1.0,0.339,0.005
06/04/2023,09:02:56,0.319,1.0,0.345,0.006
06/04/2023,09:03:55,0.305,1.0,0.35,0.005
06/04/2023,09:04:56,0.306,1.0,0.355,0.005
06/04/2023,09:05:56,0.307,1.0,0.36,0.005
06/04/2023,09:06:56,0.292,1.0,0.365,0.005
06/04/2023,09:07:56,0.279,1.0,0.37,0.005
06/04/2023,09:08:56,0.306,1.0,0.375,0.005
06/04/2023,09:09:56,0.328,1.0,0.38,0.005
06/04/2023,09:10:56,0.387,1.0,0.386,0.006
06/04/2023,09:11:56,0.336,1.0,0.392,0.006
06/04/2023,09:12:56,0.324,1.0,0.397,0.005
06/04/2023,09:13:56,0.355,1.0,0.402,0.005
06/04/2023,09:14:55,0.245,1.0,0.407,0.005
06/04/2023,09:15:56,0.219,1.0,0.411,0.004
06/04/2023,09:16:57,0.208,0.0,0.415,0.004
06/04/2023,09:17:57,0.197,0.0,0.418,0.003
06/04/2023,09:18:56,0.198,0.0,0.421,0.003
06/04/2023,09:19:56,0.208,0.0,0.425,0.004
06/04/2023,09:20:55,0.217,0.0,0.428,0.003
06/04/2023,09:21:56,0.206,0.0,0.432,0.004
06/04/2023,09:22:54,0.204,0.0,0.435,0.003
06/04/2023,09:23:56,0.204,0.0,0.439,0.004
06/04/2023,09:24:57,0.216,0.0,0.442,0.003
06/04/2023,09:25:56,0.200,0.0,0.446,0.004
06/04/2023,09:26:56,0.182,0.0,0.449,0.003
06/04/2023,09:27:56,0.179,0.0,0.452,0.003
06/04/2023,09:28:56,0.185,0.0,0.455,0.003
06/04/2023,09:29:56,0.187,0.0,0.458,0.003
06/04/2023,09:30:56,0.210,0.0,0.461,0.003
06/04/2023,09:31:56,0.239,1.0,0.465,0.004
06/04/2023,09:32:56,0.276,1.0,0.469,0.004
06/04/2023,09:33:56,0.278,1.0,0.474,0.005
06/04/2023,09:34:56,0.317,1.0,0.479,0.005
06/04/2023,09:35:56,0.347,1.0,0.484,0.005
06/04/2023,09:36:56,0.387,1.0,0.49,0.006
06/04/2023,09:37:56,0.388,1.0,0.497,0.007
06/04/2023,09:38:56,0.379,1.0,0.503,0.006
06/04/2023,09:39:56,0.370,1.0,0.51,0.007
06/04/2023,09:40:56,0.347,1.0,0.516,0.006
06/04/2023,09:41:56,0.365,1.0,0.521,0.005
06/04/2023,09:42:56,0.321,1.0,0.527,0.006
06/04/2023,09:43:56,0.341,1.0,0.532,0.005
06/04/2023,09:44:56,0.363,1.0,0.538,0.006
06/04/2023,09:45:56,0.401,1.0,0.544,0.006
06/04/2023,09:46:56,0.381,1.0,0.551,0.007
06/04/2023,09:47:56,0.399,1.0,0.557,0.006
06/04/2023,09:48:56,0.393,1.0,0.564,0.007
06/04/2023,09:49:56,0.312,1.0,0.569,0.005
06/04/2023,09:50:56,0.302,1.0,0.575,0.006
06/04/2023,09:51:56,0.329,1.0,0.58,0.005
06/04/2023,09:52:56,0.331,1.0,0.586,0.006
06/04/2023,09:53:57,0.322,1.0,0.591,0.005
06/04/2023,09:54:57,0.282,1.0,0.596,0.005
06/04/2023,09:55:56,0.306,1.0,0.601,0.005
06/04/2023,09:56:56,0.295,1.0,0.606,0.005
06/04/2023,09:57:56,0.340,1.0,0.611,0.005
06/04/2023,09:58:57,0.341,1.0,0.617,0.006
06/04/2023,09:59:57,0.342,1.0,0.622,0.005
06/04/2023,10:00:56,0.378,1.0,0.628,0.006
06/04/2023,10:01:56,0.446,1.0,0.635,0.007
06/04/2023,10:02:56,0.530,1.0,0.643,0.008
06/04/2023,10:03:56,0.812,2.0,0.654,0.011
06/04/2023,10:04:56,0.667,2.0,0.667,0.013